When you browse on this site, cookies collect data to enhance your experience and personalize the content and advertising you see.
Visit our Privacy Policy to learn more. By continuing to use the site, you agree to this use of cookies and data.
  • In Czech Republic
  • List of Countries
  • For 7 days
  • Water Temperature
  • Satellite Maps
  • Weather Map
  • Weather Widgets
  • user-avatar
    Login

    Hourly Weather West Albany

    Today, 19 April, Friday

    Time Temperature Precipitation Wind Pressure Humidity
    00:00 +12°C° 0 mm 3 mps 749 mmHg 91%
    01:00 +12°C° 0 mm 4 mps 749 mmHg 87%
    02:00 +12°C° 0 mm 4 mps 748 mmHg 86%
    03:00 +13°C° 0 mm 4 mps 748 mmHg 86%
    04:00 +14°C° 0 mm 4 mps 748 mmHg 86%
    05:00 +15°C° 0 mm 4 mps 748 mmHg 85%
    06:00 +16°C° 0 mm 5 mps 748 mmHg 84%
    07:00 +17°C° 0 mm 5 mps 748 mmHg 83%
    08:00 +19°C° 0 mm 5 mps 748 mmHg 80%
    09:00 +20°C° 0 mm 6 mps 748 mmHg 77%
    10:00 +21°C° 0 mm 6 mps 748 mmHg 74%
    11:00 +21°C° 0 mm 6 mps 748 mmHg 73%
    12:00 +21°C° 0 mm 6 mps 747 mmHg 72%
    13:00 +21°C° 0 mm 6 mps 747 mmHg 72%
    14:00 +22°C° 0.1 mm 6 mps 747 mmHg 72%
    15:00 +22°C° 0.1 mm 6 mps 747 mmHg 73%
    16:00 +22°C° 0.1 mm 5 mps 747 mmHg 73%
    17:00 +21°C° 1.3 mm 5 mps 747 mmHg 80%
    18:00 +20°C° 1.3 mm 4 mps 747 mmHg 87%
    19:00 +19°C° 1.3 mm 3 mps 747 mmHg 94%
    20:00 +19°C° 2.7 mm 4 mps 747 mmHg 93%
    21:00 +19°C° 2.7 mm 4 mps 747 mmHg 92%
    22:00 +19°C° 2.7 mm 5 mps 746 mmHg 91%
    23:00 +19°C° 0.7 mm 5 mps 746 mmHg 91%

    Tomorrow, 20 April, Saturday

    Time Temperature Precipitation Wind Pressure Humidity
    00:00 +19°C° 0.7 mm 5 mps 746 mmHg 91%
    01:00 +20°C° 0.7 mm 6 mps 746 mmHg 91%
    02:00 +19°C° 0.5 mm 5 mps 746 mmHg 91%
    03:00 +19°C° 0.5 mm 5 mps 746 mmHg 91%
    04:00 +19°C° 0.5 mm 5 mps 747 mmHg 90%
    05:00 +19°C° 0.2 mm 4 mps 747 mmHg 92%
    06:00 +19°C° 0.2 mm 3 mps 747 mmHg 93%
    07:00 +19°C° 0.2 mm 2 mps 748 mmHg 94%
    08:00 +19°C° 0.1 mm 3 mps 748 mmHg 92%
    09:00 +20°C° 0.1 mm 4 mps 748 mmHg 90%
    10:00 +21°C° 0.1 mm 5 mps 748 mmHg 88%
    11:00 +21°C° 0.1 mm 5 mps 748 mmHg 84%
    12:00 +20°C° 0.1 mm 6 mps 749 mmHg 79%
    13:00 +20°C° 0.1 mm 7 mps 749 mmHg 75%
    14:00 +20°C° 0 mm 6 mps 749 mmHg 72%
    15:00 +20°C° 0 mm 6 mps 749 mmHg 68%
    16:00 +19°C° 0 mm 6 mps 749 mmHg 65%
    17:00 +17°C° 0 mm 6 mps 749 mmHg 67%
    18:00 +16°C° 0 mm 5 mps 750 mmHg 70%
    19:00 +15°C° 0 mm 5 mps 751 mmHg 73%
    20:00 +15°C° 0 mm 4 mps 751 mmHg 77%
    21:00 +14°C° 0 mm 3 mps 752 mmHg 82%
    22:00 +13°C° 0 mm 3 mps 752 mmHg 87%
    23:00 +14°C° 0 mm 2 mps 752 mmHg 88%

    Day after tomorrow, 21 April, Sunday

    Time Temperature Precipitation Wind Pressure Humidity
    00:00 +14°C° 0 mm 2 mps 752 mmHg 90%
    01:00 +14°C° 0 mm 1 mps 752 mmHg 91%
    02:00 +14°C° 0.5 mm 1 mps 752 mmHg 92%
    03:00 +14°C° 0.5 mm 1 mps 752 mmHg 93%
    04:00 +13°C° 0.5 mm 1 mps 752 mmHg 94%
    05:00 +14°C° 0 mm 1 mps 752 mmHg 91%
    06:00 +14°C° 0 mm 1 mps 753 mmHg 89%
    07:00 +15°C° 0 mm 2 mps 753 mmHg 87%
    08:00 +16°C° 0 mm 2 mps 753 mmHg 77%
    09:00 +18°C° 0 mm 3 mps 753 mmHg 68%
    10:00 +19°C° 0 mm 3 mps 753 mmHg 59%
    11:00 +20°C° 0 mm 3 mps 754 mmHg 57%
    12:00 +20°C° 0 mm 4 mps 754 mmHg 56%
    13:00 +21°C° 0 mm 4 mps 754 mmHg 55%
    14:00 +20°C° 0 mm 4 mps 754 mmHg 56%
    15:00 +20°C° 0 mm 4 mps 753 mmHg 57%
    16:00 +20°C° 0 mm 4 mps 753 mmHg 58%
    17:00 +18°C° 0 mm 3 mps 754 mmHg 65%
    18:00 +17°C° 0 mm 3 mps 754 mmHg 72%
    19:00 +15°C° 0 mm 2 mps 754 mmHg 79%
    20:00 +14°C° 0 mm 2 mps 755 mmHg 82%
    21:00 +13°C° 0 mm 2 mps 755 mmHg 85%
    22:00 +12°C° 0 mm 2 mps 756 mmHg 89%
    23:00 +11°C° 0 mm 1 mps 756 mmHg 89%

    22 April, Monday

    Time Temperature Precipitation Wind Pressure Humidity
    00:00 +11°C° 0 mm 1 mps 755 mmHg 90%
    01:00 +10°C° 0 mm 1 mps 755 mmHg 91%
    02:00 +10°C° 0 mm 1 mps 755 mmHg 89%
    03:00 +10°C° 0 mm 1 mps 755 mmHg 88%
    04:00 +10°C° 0 mm 1 mps 756 mmHg 87%
    05:00 +11°C° 0.6 mm 1 mps 756 mmHg 87%
    06:00 +10°C° 0.6 mm 0 mps 756 mmHg 88%
    07:00 +10°C° 0.6 mm 0 mps 756 mmHg 88%
    08:00 +12°C° 0.5 mm 0 mps 756 mmHg 84%
    09:00 +13°C° 0.5 mm 0 mps 756 mmHg 80%
    10:00 +14°C° 0.5 mm 0 mps 756 mmHg 76%
    11:00 +18°C° 0 mm 1 mps 756 mmHg 69%
    12:00 +19°C° 0 mm 1 mps 756 mmHg 61%
    13:00 +21°C° 0 mm 1 mps 755 mmHg 53%
    14:00 +21°C° 0 mm 1 mps 755 mmHg 53%
    15:00 +21°C° 0 mm 1 mps 754 mmHg 52%
    16:00 +21°C° 0 mm 1 mps 754 mmHg 52%
    17:00 +19°C° 0 mm 1 mps 754 mmHg 59%
    18:00 +16°C° 0 mm 1 mps 755 mmHg 67%
    19:00 +15°C° 0 mm 1 mps 755 mmHg 74%
    20:00 +14°C° 0.2 mm 1 mps 755 mmHg 77%
    21:00 +14°C° 0.2 mm 1 mps 755 mmHg 79%
    22:00 +14°C° 0.2 mm 1 mps 755 mmHg 82%
    23:00 +14°C° 0.1 mm 2 mps 755 mmHg 83%

    23 April, Tuesday

    Time Temperature Precipitation Wind Pressure Humidity
    00:00 +13°C° 0.1 mm 2 mps 755 mmHg 84%
    01:00 +13°C° 0.1 mm 2 mps 755 mmHg 86%
    02:00 +12°C° 0 mm 2 mps 755 mmHg 88%
    03:00 +11°C° 0 mm 1 mps 755 mmHg 91%
    04:00 +11°C° 0 mm 1 mps 755 mmHg 93%
    05:00 +12°C° 0 mm 1 mps 755 mmHg 90%
    06:00 +13°C° 0 mm 1 mps 755 mmHg 87%
    07:00 +14°C° 0 mm 1 mps 755 mmHg 85%
    08:00 +16°C° 0 mm 1 mps 755 mmHg 76%
    09:00 +20°C° 0 mm 1 mps 755 mmHg 67%
    10:00 +22°C° 0 mm 1 mps 755 mmHg 58%
    11:00 +24°C° 0 mm 1 mps 754 mmHg 54%
    12:00 +26°C° 0 mm 1 mps 753 mmHg 49%
    13:00 +27°C° 0 mm 1 mps 753 mmHg 45%
    14:00 +27°C° 0 mm 1 mps 752 mmHg 45%
    15:00 +27°C° 0 mm 1 mps 752 mmHg 46%
    16:00 +27°C° 0 mm 2 mps 751 mmHg 46%
    17:00 +25°C° 0.2 mm 2 mps 751 mmHg 55%
    18:00 +23°C° 0.2 mm 2 mps 751 mmHg 64%
    19:00 +21°C° 0.2 mm 1 mps 751 mmHg 73%
    20:00 +19°C° 1.4 mm 2 mps 751 mmHg 79%
    21:00 +18°C° 1.4 mm 2 mps 750 mmHg 84%
    22:00 +17°C° 1.4 mm 2 mps 750 mmHg 90%
    23:00 +17°C° 1.3 mm 2 mps 750 mmHg 90%

    24 April, Wednesday

    Time Temperature Precipitation Wind Pressure Humidity
    00:00 +17°C° 1.3 mm 2 mps 749 mmHg 91%
    01:00 +17°C° 1.3 mm 3 mps 749 mmHg 91%
    02:00 +17°C° 0.8 mm 3 mps 748 mmHg 92%
    03:00 +17°C° 0.8 mm 3 mps 747 mmHg 92%
    04:00 +17°C° 0.8 mm 3 mps 747 mmHg 93%
    05:00 +17°C° 1 mm 3 mps 747 mmHg 92%
    06:00 +17°C° 1 mm 3 mps 746 mmHg 92%
    07:00 +17°C° 1 mm 3 mps 746 mmHg 92%
    08:00 +17°C° 0.5 mm 3 mps 746 mmHg 91%
    09:00 +17°C° 0.5 mm 4 mps 746 mmHg 90%
    10:00 +15°C° 0.5 mm 4 mps 746 mmHg 89%
    11:00 +16°C° 0 mm 5 mps 746 mmHg 81%
    12:00 +16°C° 0 mm 5 mps 746 mmHg 74%
    13:00 +17°C° 0 mm 6 mps 746 mmHg 67%
    14:00 +16°C° 0 mm 6 mps 747 mmHg 66%
    15:00 +16°C° 0 mm 6 mps 747 mmHg 65%
    16:00 +15°C° 0 mm 5 mps 748 mmHg 63%
    17:00 +14°C° 0 mm 5 mps 748 mmHg 65%
    18:00 +13°C° 0 mm 4 mps 749 mmHg 67%
    19:00 +12°C° 0 mm 4 mps 749 mmHg 69%
    20:00 +11°C° 0 mm 4 mps 750 mmHg 72%
    21:00 +10°C° 0 mm 3 mps 750 mmHg 75%
    22:00 +9°C° 0 mm 3 mps 750 mmHg 78%
    23:00 +8°C° 0 mm 3 mps 751 mmHg 80%
    Show more